Location: Newark
(41.8500°S, 167.0500°W)
Time: 21:06:40
(UTC+00:00)

Hubble Space Telescope - Visible Passes

Search period start: 21 January 2020 00:00
Search period end: 31 January 2020 00:00
Orbit: 536 x 540 km, 28.5° (Epoch: 20 January)

Date Brightness Start Highest point End Pass type
(mag) Time Alt. Az. Time Alt. Az. Time Alt. Az.
28 Jan 3.2 08:30:50 10° NNW 08:31:00 10° NNW 08:31:00 10° NNW visible
29 Jan 3.1 08:20:13 10° NNW 08:20:58 11° NNW 08:20:58 11° NNW visible
30 Jan 3.0 08:09:43 10° NNW 08:10:52 11° NNW 08:10:52 11° NNW visible
